Weather reports worldwide

Advertisment
Capo Palinuro, Italy (16310): temperature & dewpoint: 19.03.2019 07:00:00 - 25.03.2019 07:00:00 (CET)Capo Palinuro, Italy (16310): wind speed: 19.03.2019 07:00:00 - 25.03.2019 07:00:00 (CET)Capo Palinuro, Italy (16310): wind direction: 19.03.2019 07:00:00 - 25.03.2019 07:00:00 (CET)Capo Palinuro, Italy (16310): reduced air pressure: 19.03.2019 07:00:00 - 25.03.2019 07:00:00 (CET)Capo Palinuro, Italy (16310): visibility: 19.03.2019 07:00:00 - 25.03.2019 07:00:00 (CET)Capo Palinuro, Italy (16310): sunshine duration: 19.03.2019 07:00:00 - 25.03.2019 07:00:00 (CET)
Date & Time tt [°C] td [°C] ff [km/h] ff [kn] dd ppp [hPa] vv [km] sd [min]
25.03.2019 07:00:00 13,2 10,7 13 7 SSW 1018,9 20 30
25.03.2019 06:00:00 13,2 11,1 5 3 E 1019,2 10 -
25.03.2019 05:00:00 13,4 11,3 0 0 N 1019,4 20 -
25.03.2019 04:00:00 13,4 11,6 5 3 NE 1019,6 20 -
25.03.2019 03:00:00 13,4 11,6 8 4 NE 1019,8 20 -
25.03.2019 02:00:00 13,6 11,7 5 3 NNE 1020,0 20 -
25.03.2019 01:00:00 13,8 11,9 8 4 NNE 1020,0 20 -
25.03.2019 00:00:00 13,8 12,2 5 3 NNE 1020,3 20 -
24.03.2019 23:00:00 13,8 12,2 8 4 NNE 1020,3 20 -
24.03.2019 22:00:00 14,0 10,6 15 8 NNE 1020,4 20 -
24.03.2019 21:00:00 14,0 9,2 15 8 NNE 1020,7 20 -
24.03.2019 20:00:00 14,2 9,2 15 8 NNE 1020,5 20 -
24.03.2019 19:00:00 14,0 12,1 18 10 SSE 1020,5 20 -
24.03.2019 18:00:00 14,6 13,0 22 12 ENE 1020,6 20 60
24.03.2019 17:00:00 15,0 13,7 13 7 NNE 1020,6 20 60
24.03.2019 16:00:00 16,2 14,2 15 8 NNE 1020,7 20 60
24.03.2019 15:00:00 16,4 14,2 15 8 SSE 1020,8 20 60
24.03.2019 14:00:00 16,2 13,9 18 10 SSE 1020,9 20 60
24.03.2019 13:00:00 16,2 14,0 22 12 SE 1020,9 20 60
24.03.2019 12:00:00 16,0 13,7 16 9 SSE 1020,9 20 60
24.03.2019 11:00:00 16,0 14,0 11 6 SSE 1021,0 20 60
24.03.2019 10:00:00 15,2 13,1 15 8 NNE 1021,1 20 60
24.03.2019 09:00:00 14,6 12,1 15 8 NNE 1020,6 20 60
24.03.2019 08:00:00 14,0 10,6 21 11 NNE 1020,2 20 60
24.03.2019 07:00:00 13,6 12,0 18 10 NNW 1020,1 20 60
24.03.2019 06:00:00 13,6 11,7 11 6 NNW 1020,2 20 0
24.03.2019 05:00:00 14,0 10,6 15 8 WNW 1020,2 20 -
24.03.2019 04:00:00 13,6 8,2 9 5 WNW 1020,3 20 -
24.03.2019 03:00:00 14,0 6,4 0 0 N 1020,2 20 -
24.03.2019 02:00:00 14,0 8,2 0 0 N 1020,2 20 -
24.03.2019 01:00:00 14,6 7,2 11 6 NNW 1020,1 20 -
24.03.2019 00:00:00 14,6 6,9 9 5 NNW 1020,0 20 -
23.03.2019 23:00:00 14,8 5,9 9 5 NNE 1020,0 20 -
23.03.2019 22:00:00 14,0 12,6 11 6 NW 1020,2 20 -
23.03.2019 21:00:00 14,0 12,4 9 5 NNW 1019,9 20 -
23.03.2019 20:00:00 14,0 11,9 0 0 N 1019,4 20 -
23.03.2019 19:00:00 14,2 11,4 5 3 N 1019,3 20 18
23.03.2019 18:00:00 15,0 10,8 0 0 N 1019,5 20 60
23.03.2019 17:00:00 16,2 11,2 9 5 NNW 1018,9 20 60
23.03.2019 16:00:00 17,0 12,1 9 5 NW 1019,7 20 60
23.03.2019 15:00:00 17,6 9,3 9 5 SW 1019,6 20 60
23.03.2019 14:00:00 18,0 8,8 9 5 SW 1019,6 20 60
23.03.2019 13:00:00 17,4 8,8 0 0 N 1019,9 20 60
23.03.2019 12:00:00 17,0 8,4 9 5 SW 1020,8 20 60
23.03.2019 11:00:00 17,0 7,9 11 6 SW 1020,8 20 60
23.03.2019 10:00:00 17,0 6,8 5 3 WSW 1020,5 20 60
23.03.2019 09:00:00 16,2 6,9 5 3 NNE 1020,3 20 60
23.03.2019 08:00:00 14,8 7,1 11 6 NNE 1020,4 20 60
23.03.2019 07:00:00 14,6 6,2 8 4 NNE 1020,4 20 0
23.03.2019 06:00:00 14,0 5,1 9 5 NNE 1020,3 10 -
23.03.2019 05:00:00 14,0 6,4 11 6 NE 1020,3 10 -
23.03.2019 04:00:00 14,2 5,3 11 6 NNE 1020,4 20 -
23.03.2019 03:00:00 14,4 6,7 13 7 NNE 1021,0 20 -
23.03.2019 02:00:00 14,6 6,2 11 6 NNE 1021,0 10 -
23.03.2019 01:00:00 14,2 8,2 15 8 N 1021,1 20 -
23.03.2019 00:00:00 14,4 8,6 15 8 N 1021,2 15 -
22.03.2019 23:00:00 15,2 8,4 11 6 N 1021,2 15 -
22.03.2019 22:00:00 15,4 8,2 16 9 NNE 1021,2 15 -
22.03.2019 21:00:00 16,0 8,3 15 8 NNE 1021,1 20 -
22.03.2019 20:00:00 16,0 8,7 9 5 N 1021,0 20 -
22.03.2019 19:00:00 16,4 8,9 9 5 NNE 1020,9 20 -
22.03.2019 18:00:00 16,6 10,5 9 5 NNE 1020,9 20 18
22.03.2019 17:00:00 17,0 10,4 5 3 N 1021,1 20 60
22.03.2019 16:00:00 18,0 11,8 4 2 NNW 1021,4 20 60
22.03.2019 15:00:00 18,8 11,6 8 4 NW 1021,8 20 60
22.03.2019 14:00:00 18,6 13,7 5 3 NW 1021,9 20 60
22.03.2019 13:00:00 19,0 12,1 9 5 NW 1021,9 20 60
22.03.2019 12:00:00 18,4 10,5 5 3 NW 1022,0 20 60
22.03.2019 11:00:00 18,4 9,2 8 4 ENE 1021,8 20 60
22.03.2019 10:00:00 16,0 8,2 11 6 NNE 1022,1 20 60
22.03.2019 09:00:00 17,0 6,5 15 8 NNE 1021,6 20 -
22.03.2019 08:00:00 15,0 5,5 22 12 NNE 1021,3 20 60
22.03.2019 07:00:00 14,4 5,5 11 6 NNE 1021,4 20 6
22.03.2019 06:00:00 14,2 5,6 9 5 N 1021,4 20 -
22.03.2019 05:00:00 14,4 6,0 9 5 NNE 1021,4 20 -
22.03.2019 04:00:00 14,4 5,8 8 4 NNE 1021,4 20 -
22.03.2019 03:00:00 14,2 5,8 4 2 NNE 1021,2 20 -
22.03.2019 02:00:00 14,0 5,6 4 2 N 1021,3 20 -
22.03.2019 01:00:00 14,0 6,4 9 5 N 1021,4 20 -
22.03.2019 00:00:00 14,0 6,4 8 4 N 1021,6 20 -
21.03.2019 23:00:00 14,0 6,4 4 2 NNE 1021,3 20 -
21.03.2019 22:00:00 14,0 5,9 8 4 NNE 1021,2 20 -
21.03.2019 21:00:00 14,4 6,7 9 5 NNE 1021,0 20 -
21.03.2019 20:00:00 14,8 7,4 15 8 NNE 1020,7 20 -
21.03.2019 19:00:00 14,8 7,8 11 6 NNE 1020,8 20 -
21.03.2019 18:00:00 15,0 8,5 28 15 N 1020,5 20 0
21.03.2019 17:00:00 16,0 8,2 22 12 NNE 1020,4 20 0
21.03.2019 16:00:00 16,6 8,3 18 10 NNE 1020,1 20 30
21.03.2019 15:00:00 17,4 8,0 15 8 ESE 1020,3 20 60
21.03.2019 14:00:00 18,0 8,6 18 10 NNE 1020,4 20 60
21.03.2019 13:00:00 17,4 6,9 18 10 NNE 1020,7 20 60
21.03.2019 12:00:00 17,0 6,8 15 8 ESE 1020,7 20 60
21.03.2019 11:00:00 16,6 6,7 18 10 NNE 1020,6 20 60
21.03.2019 10:00:00 15,6 6,1 21 11 N 1020,3 20 60
21.03.2019 09:00:00 14,6 5,9 24 13 NNE 1019,9 20 60
21.03.2019 08:00:00 13,8 5,9 22 12 N 1019,9 20 60
21.03.2019 07:00:00 14,0 6,1 21 11 NNW 1019,8 20 36
21.03.2019 06:00:00 13,6 5,5 18 10 NNE 1019,8 20 -
21.03.2019 05:00:00 13,6 5,5 9 5 WNW 1020,0 20 -
21.03.2019 04:00:00 13,6 5,8 9 5 NW 1020,2 20 -
21.03.2019 03:00:00 13,6 6,2 11 6 WNW 1020,2 20 -
21.03.2019 02:00:00 13,6 6,2 11 6 WNW 1020,2 20 -
21.03.2019 01:00:00 13,6 6,2 16 9 NW 1020,2 20 -
21.03.2019 00:00:00 13,6 6,5 15 8 NNW 1019,8 20 -
20.03.2019 23:00:00 13,6 6,5 21 11 NW 1019,6 20 -
20.03.2019 22:00:00 13,6 6,9 0 0 N 1019,4 20 -
20.03.2019 21:00:00 13,6 7,6 5 3 N 1019,1 20 -
20.03.2019 20:00:00 13,0 7,9 0 0 N 1019,0 20 -
20.03.2019 19:00:00 13,4 7,6 0 0 N 1018,8 20 -
20.03.2019 18:00:00 14,4 8,4 9 5 SSE 1018,6 20 30
20.03.2019 17:00:00 14,8 9,0 5 3 N 1018,5 20 24
20.03.2019 16:00:00 14,8 9,2 9 5 WNW 1018,5 20 6
20.03.2019 15:00:00 15,0 10,2 0 0 N 1018,5 20 0
20.03.2019 14:00:00 15,6 9,7 9 5 WNW 1018,6 20 24
20.03.2019 13:00:00 13,8 11,9 9 5 NW 1019,1 20 6
20.03.2019 12:00:00 15,0 11,2 5 3 NNW 1019,1 20 24
20.03.2019 11:00:00 13,0 10,9 0 0 N 1019,5 20 0
20.03.2019 10:00:00 12,2 10,1 5 3 NE 1019,3 10 0
20.03.2019 09:00:00 12,2 10,6 5 3 WSW 1018,6 10 0
20.03.2019 08:00:00 13,2 11,8 0 0 N 1017,9 10 -
20.03.2019 07:00:00 13,2 10,2 8 4 SE 1017,5 20 0
20.03.2019 06:00:00 13,2 11,1 0 0 N 1017,5 20 -
20.03.2019 05:00:00 13,2 11,4 0 0 N 1017,6 20 -
20.03.2019 04:00:00 13,0 10,7 5 3 NNE 1017,7 20 -
20.03.2019 03:00:00 12,8 10,0 8 4 N 1017,7 20 -
20.03.2019 02:00:00 12,8 10,4 8 4 N 1017,7 20 -
20.03.2019 01:00:00 12,8 11,2 8 4 NW 1017,6 20 -
20.03.2019 00:00:00 12,6 9,6 8 4 N 1017,3 20 -
19.03.2019 23:00:00 12,6 9,6 9 5 NNW 1017,1 20 -
19.03.2019 22:00:00 12,0 8,3 11 6 NNE 1017,2 18 -
19.03.2019 21:00:00 12,2 9,2 11 6 ESE 1016,9 10 -
19.03.2019 20:00:00 12,2 10,6 9 5 ESE 1016,5 10 -
19.03.2019 19:00:00 12,4 10,8 13 7 ESE 1015,7 10 -
19.03.2019 18:00:00 12,4 9,6 9 5 NNE 1015,5 10 24
19.03.2019 17:00:00 13,2 10,0 13 7 SE 1015,4 10 60
19.03.2019 16:00:00 13,8 8,8 9 5 SE 1015,4 10 60
19.03.2019 15:00:00 14,6 9,8 15 8 N 1015,3 10 60
19.03.2019 14:00:00 15,0 10,6 9 5 NNE 1015,3 10 60
19.03.2019 13:00:00 15,0 10,4 11 6 NNE 1015,6 18 60
19.03.2019 12:00:00 14,0 10,4 11 6 NE 1015,5 10 60
19.03.2019 11:00:00 14,2 11,0 11 6 SE 1015,4 10 60
19.03.2019 10:00:00 13,0 10,5 9 5 WNW 1015,2 10 60
19.03.2019 09:00:00 13,0 10,5 9 5 WNW 1015,2 10 60
19.03.2019 08:00:00 12,0 9,0 0 0 N 1015,2 10 60
19.03.2019 07:00:00 11,0 8,4 11 6 W 1015,3 10 60

tt = temperature
td = dewpoint
ff = wind speed
dd = wind direction
ppp = reduced air pressure
vv = visibility
sd = sunshine duration

Next stations